フルス彗星

C/2021 Q4 ( Fuls )

English version
Home page
Updated on October 28, 2021

---------------------------------------------------------------------

・ プロフィール

発見日 2021年8月26日
発見光度 20.0等
発見者 David Carson Fuls (Mt. Lemmon)

・ 写真集

・ 軌道要素

Epoch 2023 June 25.0 TT = JDT 2460120.5                                         
T 2023 June 10.66373 TT                                 Rudenko                 
q   7.5648947            (2000.0)            P               Q                  
z  -0.0004002      Peri.  147.01055     +0.84740832     +0.52807324             
 +/-0.0000067      Node   183.33238     -0.31907743     +0.58948294             
e   1.0030276      Incl.   71.47505     +0.42436864     -0.61126796             
From 83 observations 2020 Apr. 27-2021 Aug. 30, mean residual 0".6.             

・ 光度変化

        m1 = 6.0 + 5 logΔ + 10.0 log r

---------------------------------------------------------------------

軌道要素はM.P.E.C. 2021-Q102に掲載されたものです。
光度グラフはComet for Windowsで作成したものです。

---------------------------------------------------------------------

Copyright(C) Seiichi Yoshida (comet@aerith.net). All rights reserved.